When you browse on this site, cookies collect data to enhance your experience and personalize the content and advertising you see.
Visit our Privacy Policy to learn more. By continuing to use the site, you agree to this use of cookies and data.
  • In Hungary
  • List of Countries
  • For 7 days
  • Water Temperature
  • Satellite Maps
  • Weather Map
  • News
  • Weather Widgets
  • user-avatar
    Login

    Hourly Weather Kailaras

    Today, 23 July, Tuesday

    Time Temperature Precipitation Wind Pressure Humidity
    00:00 +37°C° 0 mm 2 mps 733 mmHg 53%
    01:00 +36°C° 0 mm 2 mps 733 mmHg 53%
    02:00 +35°C° 0 mm 1 mps 733 mmHg 53%
    03:00 +36°C° 0 mm 2 mps 733 mmHg 53%
    04:00 +36°C° 0 mm 2 mps 733 mmHg 53%
    05:00 +35°C° 0 mm 2 mps 733 mmHg 55%
    06:00 +36°C° 0.4 mm 3 mps 733 mmHg 52%
    07:00 +37°C° 0.4 mm 3 mps 734 mmHg 49%
    08:00 +38°C° 0.4 mm 3 mps 734 mmHg 46%
    09:00 +40°C° 0 mm 4 mps 734 mmHg 43%
    10:00 +42°C° 0 mm 4 mps 733 mmHg 39%
    11:00 +43°C° 0 mm 4 mps 734 mmHg 35%
    12:00 +43°C° 0 mm 4 mps 733 mmHg 34%
    13:00 +44°C° 0 mm 4 mps 732 mmHg 33%
    14:00 +44°C° 0 mm 4 mps 732 mmHg 32%
    15:00 +44°C° 0 mm 4 mps 732 mmHg 33%
    16:00 +44°C° 0 mm 4 mps 731 mmHg 33%
    17:00 +43°C° 0 mm 4 mps 731 mmHg 34%
    18:00 +42°C° 0.1 mm 3 mps 731 mmHg 36%
    19:00 +40°C° 0.1 mm 3 mps 731 mmHg 39%
    20:00 +40°C° 0.1 mm 3 mps 732 mmHg 42%
    21:00 +39°C° 0.5 mm 3 mps 732 mmHg 44%
    22:00 +38°C° 0.5 mm 3 mps 732 mmHg 46%
    23:00 +38°C° 0.5 mm 3 mps 732 mmHg 48%

    Tomorrow, 24 July, Wednesday

    Time Temperature Precipitation Wind Pressure Humidity
    00:00 +37°C° 0.3 mm 3 mps 732 mmHg 49%
    01:00 +37°C° 0.3 mm 3 mps 732 mmHg 50%
    02:00 +37°C° 0.3 mm 4 mps 731 mmHg 51%
    03:00 +37°C° 0.1 mm 4 mps 731 mmHg 52%
    04:00 +36°C° 0.1 mm 4 mps 731 mmHg 54%
    05:00 +36°C° 0.1 mm 4 mps 731 mmHg 55%
    06:00 +36°C° 0 mm 5 mps 732 mmHg 54%
    07:00 +38°C° 0 mm 6 mps 732 mmHg 52%
    08:00 +39°C° 0 mm 7 mps 733 mmHg 51%
    09:00 +40°C° 0 mm 7 mps 732 mmHg 47%
    10:00 +43°C° 0 mm 7 mps 732 mmHg 42%
    11:00 +44°C° 0 mm 6 mps 732 mmHg 38%
    12:00 +45°C° 0 mm 6 mps 732 mmHg 36%
    13:00 +45°C° 0 mm 6 mps 731 mmHg 34%
    14:00 +46°C° 0 mm 5 mps 731 mmHg 32%
    15:00 +45°C° 0 mm 5 mps 730 mmHg 33%
    16:00 +45°C° 0 mm 5 mps 730 mmHg 34%
    17:00 +45°C° 0 mm 5 mps 729 mmHg 35%
    18:00 +42°C° 0.4 mm 4 mps 730 mmHg 40%
    19:00 +39°C° 0.4 mm 3 mps 730 mmHg 45%
    20:00 +38°C° 0.4 mm 3 mps 731 mmHg 50%
    21:00 +37°C° 0.5 mm 3 mps 731 mmHg 51%
    22:00 +37°C° 0.5 mm 3 mps 731 mmHg 53%
    23:00 +36°C° 0.5 mm 2 mps 731 mmHg 55%

    Day after tomorrow, 25 July, Thursday

    Time Temperature Precipitation Wind Pressure Humidity
    00:00 +36°C° 0 mm 4 mps 731 mmHg 55%
    01:00 +36°C° 0 mm 5 mps 731 mmHg 56%
    02:00 +36°C° 0 mm 6 mps 731 mmHg 56%
    03:00 +35°C° 0.4 mm 6 mps 731 mmHg 58%
    04:00 +34°C° 0.4 mm 6 mps 731 mmHg 60%
    05:00 +34°C° 0.4 mm 6 mps 731 mmHg 62%
    06:00 +34°C° 0.7 mm 5 mps 731 mmHg 62%
    07:00 +35°C° 0.7 mm 4 mps 732 mmHg 61%
    08:00 +35°C° 0.7 mm 4 mps 732 mmHg 61%
    09:00 +34°C° 4.1 mm 4 mps 732 mmHg 65%
    10:00 +33°C° 4.1 mm 4 mps 732 mmHg 70%
    11:00 +33°C° 4.1 mm 4 mps 732 mmHg 75%
    12:00 +33°C° 1.3 mm 4 mps 732 mmHg 75%
    13:00 +33°C° 1.3 mm 4 mps 731 mmHg 74%
    14:00 +33°C° 1.3 mm 5 mps 731 mmHg 74%
    15:00 +32°C° 1.7 mm 5 mps 731 mmHg 77%
    16:00 +30°C° 1.7 mm 5 mps 731 mmHg 81%
    17:00 +30°C° 1.7 mm 5 mps 730 mmHg 85%
    18:00 +29°C° 1.6 mm 5 mps 731 mmHg 84%
    19:00 +28°C° 1.6 mm 5 mps 731 mmHg 84%
    20:00 +28°C° 1.6 mm 4 mps 732 mmHg 83%
    21:00 +28°C° 0.6 mm 3 mps 732 mmHg 83%
    22:00 +28°C° 0.6 mm 2 mps 732 mmHg 83%
    23:00 +28°C° 0.6 mm 1 mps 732 mmHg 83%

    26 July, Friday

    Time Temperature Precipitation Wind Pressure Humidity
    00:00 +28°C° 0.5 mm 1 mps 732 mmHg 83%
    01:00 +26°C° 0.5 mm 0 mps 732 mmHg 84%
    02:00 +26°C° 0.5 mm 0 mps 731 mmHg 84%
    03:00 +28°C° 0.1 mm 1 mps 731 mmHg 84%
    04:00 +28°C° 0.1 mm 1 mps 731 mmHg 85%
    05:00 +28°C° 0.1 mm 1 mps 731 mmHg 85%
    06:00 +28°C° 0.2 mm 1 mps 731 mmHg 84%
    07:00 +29°C° 0.2 mm 1 mps 731 mmHg 83%
    08:00 +29°C° 0.2 mm 2 mps 732 mmHg 82%
    09:00 +29°C° 0.8 mm 3 mps 731 mmHg 82%
    10:00 +29°C° 0.8 mm 4 mps 731 mmHg 82%
    11:00 +29°C° 0.8 mm 6 mps 731 mmHg 81%
    12:00 +30°C° 0.4 mm 6 mps 731 mmHg 79%
    13:00 +30°C° 0.4 mm 6 mps 730 mmHg 77%
    14:00 +32°C° 0.4 mm 6 mps 730 mmHg 75%
    15:00 +30°C° 0.5 mm 6 mps 729 mmHg 76%
    16:00 +30°C° 0.5 mm 6 mps 729 mmHg 77%
    17:00 +30°C° 0.5 mm 6 mps 729 mmHg 77%
    18:00 +30°C° 1 mm 6 mps 729 mmHg 79%
    19:00 +30°C° 1 mm 6 mps 729 mmHg 81%
    20:00 +29°C° 1 mm 5 mps 730 mmHg 83%
    21:00 +29°C° 0.3 mm 5 mps 730 mmHg 84%
    22:00 +29°C° 0.3 mm 5 mps 730 mmHg 85%
    23:00 +29°C° 0.3 mm 4 mps 730 mmHg 86%

    27 July, Saturday

    Time Temperature Precipitation Wind Pressure Humidity
    00:00 +29°C° 0.2 mm 4 mps 730 mmHg 87%
    01:00 +29°C° 0.2 mm 4 mps 730 mmHg 87%
    02:00 +28°C° 0.2 mm 4 mps 729 mmHg 88%
    03:00 +28°C° 0.2 mm 4 mps 729 mmHg 88%
    04:00 +28°C° 0.2 mm 4 mps 729 mmHg 88%
    05:00 +28°C° 0.2 mm 4 mps 729 mmHg 89%
    06:00 +29°C° 0.1 mm 3 mps 729 mmHg 85%
    07:00 +30°C° 0.1 mm 3 mps 730 mmHg 80%
    08:00 +31°C° 0.1 mm 3 mps 730 mmHg 76%
    09:00 +32°C° 1.7 mm 4 mps 730 mmHg 75%
    10:00 +33°C° 1.7 mm 4 mps 730 mmHg 73%
    11:00 +34°C° 1.7 mm 5 mps 730 mmHg 71%
    12:00 +33°C° 1.5 mm 6 mps 730 mmHg 71%
    13:00 +33°C° 1.5 mm 6 mps 729 mmHg 70%
    14:00 +33°C° 1.5 mm 7 mps 729 mmHg 70%
    15:00 +33°C° 0 mm 6 mps 729 mmHg 71%
    16:00 +33°C° 0 mm 6 mps 729 mmHg 73%
    17:00 +33°C° 0 mm 5 mps 729 mmHg 74%
    18:00 +32°C° 0 mm 5 mps 729 mmHg 76%
    19:00 +30°C° 0 mm 4 mps 730 mmHg 78%
    20:00 +30°C° 0 mm 4 mps 730 mmHg 80%
    21:00 +29°C° 0 mm 4 mps 731 mmHg 80%
    22:00 +29°C° 0 mm 3 mps 731 mmHg 81%
    23:00 +29°C° 0 mm 3 mps 731 mmHg 81%

    28 July, Sunday

    Time Temperature Precipitation Wind Pressure Humidity
    00:00 +29°C° 0 mm 3 mps 731 mmHg 82%
    01:00 +29°C° 0 mm 2 mps 731 mmHg 82%
    02:00 +29°C° 0 mm 2 mps 730 mmHg 83%
    03:00 +28°C° 0 mm 1 mps 730 mmHg 84%
    04:00 +28°C° 0 mm 1 mps 731 mmHg 85%
    05:00 +28°C° 0 mm 1 mps 731 mmHg 85%
    06:00 +29°C° 0 mm 1 mps 731 mmHg 81%
    07:00 +30°C° 0 mm 2 mps 731 mmHg 76%
    08:00 +31°C° 0 mm 2 mps 732 mmHg 72%
    09:00 +33°C° 0.1 mm 3 mps 732 mmHg 68%
    10:00 +34°C° 0.1 mm 3 mps 732 mmHg 64%
    11:00 +35°C° 0.1 mm 4 mps 731 mmHg 60%
    12:00 +36°C° 0.3 mm 4 mps 731 mmHg 58%
    13:00 +37°C° 0.3 mm 4 mps 730 mmHg 55%
    14:00 +37°C° 0.3 mm 4 mps 730 mmHg 53%
    15:00 +37°C° 0.4 mm 4 mps 729 mmHg 54%
    16:00 +37°C° 0.4 mm 4 mps 729 mmHg 55%
    17:00 +37°C° 0.4 mm 4 mps 729 mmHg 56%
    18:00 +35°C° 0.9 mm 4 mps 730 mmHg 62%
    19:00 +34°C° 0.9 mm 3 mps 730 mmHg 68%
    20:00 +33°C° 0.9 mm 3 mps 731 mmHg 73%
    21:00 +33°C° 1.1 mm 3 mps 731 mmHg 75%
    22:00 +31°C° 1.1 mm 3 mps 731 mmHg 77%
    23:00 +31°C° 1.1 mm 3 mps 732 mmHg 79%
    Show more